EWG379 EDLP-EDDC

Flight info

Callsign EWG379
Flight time 0h 46m
Altitude 31000
Route GISDI1X GISDI DCT KATCE DCT OSKAN OSKAN4A
Aircraft A320/M-SDE3FGHIRWY/LB1

Departure

Time 2026-05-06 12:21
Airport Paderborn Lippstadt Airport (EDLP)

Arrival

Time 2026-05-06 13:07
Airport Dresden Airport (EDDC)
Time Latitude Longitude Altitude Speed Heading
2026-05-06 11:50 51.61146 8.62005 730 ft 0 kts 147°
2026-05-06 12:13 51.61158 8.61993 731 ft 4 kts 159°
2026-05-06 12:13 51.61183 8.61986 731 ft 4 kts 189°
2026-05-06 12:13 51.61208 8.61999 731 ft 4 kts 216°
2026-05-06 12:13 51.61221 8.62019 729 ft 0 kts 237°
2026-05-06 12:16 51.61205 8.61978 729 ft 12 kts 237°
2026-05-06 12:16 51.61141 8.61821 731 ft 17 kts 237°
2026-05-06 12:16 51.61187 8.61732 725 ft 18 kts 328°
2026-05-06 12:17 51.61187 8.61565 720 ft 19 kts 235°
2026-05-06 12:17 51.61149 8.61477 721 ft 0 kts 236°
2026-05-06 12:17 51.61144 8.61465 720 ft 7 kts 236°
2026-05-06 12:18 51.61093 8.61343 719 ft 19 kts 236°
2026-05-06 12:18 51.61003 8.61122 719 ft 28 kts 236°
2026-05-06 12:18 51.60883 8.60830 717 ft 35 kts 237°
2026-05-06 12:18 51.60768 8.60547 712 ft 15 kts 237°
2026-05-06 12:19 51.60772 8.60393 716 ft 5 kts 312°
2026-05-06 12:19 51.60779 8.60383 716 ft 0 kts 317°
2026-05-06 12:19 51.60806 8.60352 716 ft 9 kts 332°
2026-05-06 12:19 51.60896 8.60379 718 ft 16 kts 43°
2026-05-06 12:20 51.60904 8.60397 717 ft 0 kts 56°
2026-05-06 12:21 51.60905 8.60398 717 ft 1 kts 56°
2026-05-06 12:21 51.61009 8.60647 719 ft 67 kts 57°
2026-05-06 12:21 51.61426 8.61646 714 ft 144 kts 53°
2026-05-06 12:21 51.62024 8.62983 1453 ft 141 kts 44°
2026-05-06 12:22 51.62712 8.64274 1924 ft 179 kts 46°
2026-05-06 12:22 51.63510 8.66025 2206 ft 207 kts 57°
2026-05-06 12:22 51.64242 8.68186 2607 ft 228 kts 71°
2026-05-06 12:22 51.64502 8.70826 3093 ft 247 kts 82°
2026-05-06 12:23 51.64713 8.73570 3850 ft 252 kts 90°
2026-05-06 12:23 51.64209 8.76262 4626 ft 252 kts 129°
2026-05-06 12:23 51.62826 8.78035 4942 ft 261 kts 161°
2026-05-06 12:23 51.61062 8.78700 4795 ft 260 kts 177°
2026-05-06 12:24 51.59244 8.78813 5192 ft 262 kts 182°
2026-05-06 12:24 51.57428 8.78785 6262 ft 259 kts 183°
2026-05-06 12:24 51.55624 8.78776 7173 ft 263 kts 182°
2026-05-06 12:24 51.53716 8.78818 7543 ft 287 kts 181°
2026-05-06 12:25 51.51640 8.78923 7867 ft 310 kts 180°
2026-05-06 12:25 51.49437 8.79091 8455 ft 322 kts 179°
2026-05-06 12:25 51.47177 8.79308 9229 ft 327 kts 179°
2026-05-06 12:25 51.44894 8.79552 10030 ft 331 kts 179°
2026-05-06 12:26 51.42585 8.79802 10766 ft 335 kts 178°
2026-05-06 12:26 51.40239 8.80055 11479 ft 340 kts 179°
2026-05-06 12:26 51.37870 8.80305 12181 ft 344 kts 179°
2026-05-06 12:26 51.35449 8.80558 12904 ft 348 kts 179°
2026-05-06 12:27 51.33029 8.80876 13601 ft 355 kts 173°
2026-05-06 12:27 51.30675 8.82215 14208 ft 366 kts 152°
2026-05-06 12:27 51.28737 8.84922 14832 ft 378 kts 130°
2026-05-06 12:27 51.27529 8.88713 15293 ft 395 kts 108°
2026-05-06 12:28 51.27176 8.93187 15429 ft 417 kts 95°
2026-05-06 12:28 51.27095 8.97904 15556 ft 434 kts 93°
2026-05-06 12:28 51.27084 9.02782 15846 ft 443 kts 92°
2026-05-06 12:28 51.27097 9.07719 16299 ft 446 kts 92°
2026-05-06 12:29 51.27103 9.12689 16763 ft 449 kts 92°
2026-05-06 12:29 51.27085 9.17700 17267 ft 452 kts 93°
2026-05-06 12:29 51.27040 9.22689 17746 ft 455 kts 93°
2026-05-06 12:29 51.26977 9.27748 18184 ft 457 kts 94°
2026-05-06 12:30 51.26902 9.32847 18585 ft 460 kts 94°
2026-05-06 12:30 51.26823 9.37963 19004 ft 462 kts 94°
2026-05-06 12:30 51.26744 9.43102 19393 ft 464 kts 94°
2026-05-06 12:30 51.26670 9.48257 19775 ft 466 kts 94°
2026-05-06 12:31 51.26596 9.53447 20144 ft 468 kts 94°
2026-05-06 12:31 51.26522 9.58654 20460 ft 471 kts 94°
2026-05-06 12:31 51.26444 9.63916 20744 ft 475 kts 94°
2026-05-06 12:31 51.26363 9.69200 21070 ft 478 kts 94°
2026-05-06 12:32 51.26277 9.74511 21405 ft 480 kts 94°
2026-05-06 12:32 51.26188 9.79846 21731 ft 482 kts 94°
2026-05-06 12:32 51.26098 9.85217 22049 ft 485 kts 94°
2026-05-06 12:32 51.26005 9.90608 22350 ft 487 kts 94°
2026-05-06 12:33 51.25907 9.96024 22664 ft 489 kts 94°
2026-05-06 12:33 51.25806 10.01463 22968 ft 491 kts 94°
2026-05-06 12:33 51.25705 10.06921 23244 ft 494 kts 95°
2026-05-06 12:33 51.25599 10.12413 23467 ft 497 kts 95°
2026-05-06 12:34 51.25491 10.17942 23701 ft 499 kts 95°
2026-05-06 12:34 51.25379 10.23491 23954 ft 500 kts 95°
2026-05-06 12:34 51.25265 10.29044 24198 ft 502 kts 95°
2026-05-06 12:34 51.25185 10.34609 24218 ft 501 kts 91°
2026-05-06 12:35 51.25487 10.40108 23474 ft 495 kts 86°
2026-05-06 12:35 51.25897 10.45546 22545 ft 491 kts 85°
2026-05-06 12:35 51.26327 10.50928 21972 ft 488 kts 85°
2026-05-06 12:35 51.26762 10.56291 21734 ft 486 kts 85°
2026-05-06 12:36 51.27191 10.61647 21780 ft 486 kts 85°
2026-05-06 12:36 51.27608 10.67006 21770 ft 486 kts 85°
2026-05-06 12:36 51.28016 10.72354 21774 ft 486 kts 85°
2026-05-06 12:36 51.28415 10.77717 21771 ft 486 kts 85°
2026-05-06 12:37 51.28807 10.83075 21773 ft 486 kts 85°
2026-05-06 12:37 51.29196 10.88432 21774 ft 486 kts 85°
2026-05-06 12:37 51.29585 10.93796 21773 ft 486 kts 85°
2026-05-06 12:37 51.29974 10.99163 21776 ft 486 kts 86°
2026-05-06 12:38 51.30362 11.04523 21755 ft 486 kts 85°
2026-05-06 12:38 51.30751 11.09878 21778 ft 485 kts 85°
2026-05-06 12:38 51.31135 11.15228 21772 ft 484 kts 86°
2026-05-06 12:38 51.31515 11.20578 21777 ft 484 kts 86°
2026-05-06 12:39 51.31889 11.25927 21784 ft 484 kts 86°
2026-05-06 12:39 51.32261 11.31284 21774 ft 485 kts 86°
2026-05-06 12:39 51.32630 11.36630 21775 ft 485 kts 86°
2026-05-06 12:39 51.33002 11.41989 21774 ft 485 kts 86°
2026-05-06 12:40 51.33375 11.47380 21772 ft 485 kts 86°
2026-05-06 12:40 51.33742 11.52727 21771 ft 485 kts 86°
2026-05-06 12:40 51.34104 11.58091 21771 ft 485 kts 86°
2026-05-06 12:40 51.34461 11.63445 21772 ft 485 kts 86°
2026-05-06 12:41 51.34819 11.68826 21775 ft 485 kts 86°
2026-05-06 12:41 51.35175 11.74194 21772 ft 485 kts 86°
2026-05-06 12:41 51.35529 11.79562 21772 ft 485 kts 86°
2026-05-06 12:41 51.35878 11.84912 21772 ft 485 kts 86°
2026-05-06 12:42 51.36227 11.90276 21772 ft 485 kts 86°
2026-05-06 12:42 51.36574 11.95634 21772 ft 485 kts 86°
2026-05-06 12:42 51.36920 12.01008 21772 ft 485 kts 86°
2026-05-06 12:42 51.37264 12.06377 21757 ft 486 kts 86°
2026-05-06 12:43 51.37606 12.11770 21774 ft 487 kts 86°
2026-05-06 12:43 51.37943 12.17165 21772 ft 487 kts 86°
2026-05-06 12:43 51.38271 12.22510 21779 ft 474 kts 86°
2026-05-06 12:43 51.38590 12.27694 21783 ft 465 kts 86°
2026-05-06 12:44 51.38904 12.32835 21783 ft 462 kts 86°
2026-05-06 12:44 51.39213 12.37949 21798 ft 462 kts 87°
2026-05-06 12:44 51.39521 12.43063 21779 ft 462 kts 87°
2026-05-06 12:44 51.39828 12.48187 21781 ft 462 kts 87°
2026-05-06 12:45 51.40131 12.53314 21779 ft 462 kts 87°
2026-05-06 12:45 51.40431 12.58436 21777 ft 463 kts 87°
2026-05-06 12:45 51.41025 12.68673 21155 ft 457 kts 87°
2026-05-06 12:46 51.41312 12.73654 20492 ft 453 kts 87°
2026-05-06 12:46 51.41600 12.78651 19959 ft 446 kts 87°
2026-05-06 12:46 51.41880 12.83524 19760 ft 432 kts 87°
2026-05-06 12:46 51.42151 12.88256 19774 ft 425 kts 88°
2026-05-06 12:47 51.42415 12.92959 19778 ft 424 kts 88°
2026-05-06 12:47 51.42672 12.97665 19774 ft 423 kts 88°
2026-05-06 12:47 51.42926 13.02351 19775 ft 423 kts 88°
2026-05-06 12:47 51.43184 13.07066 19765 ft 424 kts 88°
2026-05-06 12:48 51.43444 13.11842 19777 ft 425 kts 88°
2026-05-06 12:48 51.43699 13.16562 19779 ft 425 kts 88°
2026-05-06 12:48 51.43950 13.21217 19553 ft 422 kts 88°
2026-05-06 12:48 51.44202 13.25940 18995 ft 419 kts 88°
2026-05-06 12:49 51.44449 13.30576 18472 ft 415 kts 88°
2026-05-06 12:49 51.44691 13.35164 17976 ft 412 kts 88°
2026-05-06 12:49 51.44929 13.39718 17410 ft 408 kts 88°
2026-05-06 12:49 51.45160 13.44237 16867 ft 405 kts 88°
2026-05-06 12:50 51.45386 13.48717 16342 ft 402 kts 88°
2026-05-06 12:50 51.45609 13.53159 15833 ft 398 kts 88°
2026-05-06 12:50 51.45827 13.57571 15318 ft 396 kts 88°
2026-05-06 12:50 51.46046 13.61967 14823 ft 394 kts 88°
2026-05-06 12:51 51.46147 13.66315 14342 ft 387 kts 98°
2026-05-06 12:51 51.45459 13.70363 14117 ft 368 kts 120°
2026-05-06 12:51 51.44620 13.72657 14034 ft 353 kts 132°
2026-05-06 12:51 51.42398 13.76179 13873 ft 333 kts 138°
2026-05-06 12:52 51.40896 13.79012 13748 ft 325 kts 134°
2026-05-06 12:52 51.39972 13.80859 13670 ft 318 kts 133°
2026-05-06 12:52 51.38612 13.83601 13544 ft 309 kts 133°
2026-05-06 12:52 51.37288 13.86281 13172 ft 308 kts 133°
2026-05-06 12:53 51.35526 13.89835 12486 ft 313 kts 133°
2026-05-06 12:53 51.34160 13.92572 11973 ft 316 kts 133°
2026-05-06 12:53 51.32781 13.95325 11467 ft 319 kts 133°
2026-05-06 12:53 51.31285 13.97930 11010 ft 313 kts 147°
2026-05-06 12:54 51.30038 13.99099 10671 ft 302 kts 163°
2026-05-06 12:54 51.28052 13.99621 10186 ft 282 kts 188°
2026-05-06 12:54 51.26251 13.98715 9697 ft 267 kts 214°
2026-05-06 12:54 51.24812 13.96911 9188 ft 261 kts 223°
2026-05-06 12:55 51.23508 13.94960 8687 ft 254 kts 224°
2026-05-06 12:55 51.22193 13.93177 8304 ft 244 kts 210°
2026-05-06 12:55 51.20578 13.92519 7911 ft 244 kts 180°
2026-05-06 12:55 51.18918 13.93196 7523 ft 251 kts 158°
2026-05-06 12:56 51.17549 13.94951 7152 ft 258 kts 135°
2026-05-06 12:56 51.16421 13.97191 6785 ft 260 kts 129°
2026-05-06 12:56 51.15707 13.99845 6419 ft 267 kts 100°
2026-05-06 12:56 51.15877 14.02787 6045 ft 271 kts 71°
2026-05-06 12:57 51.16668 14.05516 5663 ft 271 kts 63°
2026-05-06 12:57 51.17544 14.08175 5280 ft 271 kts 62°
2026-05-06 12:57 51.18422 14.10829 4899 ft 271 kts 62°
2026-05-06 12:57 51.19317 14.13443 4531 ft 270 kts 60°
2026-05-06 12:58 51.20263 14.16036 4157 ft 269 kts 60°
2026-05-06 12:58 51.21200 14.18573 3996 ft 259 kts 59°
2026-05-06 12:58 51.22184 14.20837 3998 ft 239 kts 40°
2026-05-06 12:58 51.23568 14.21992 3997 ft 215 kts
2026-05-06 12:59 51.24942 14.21714 3995 ft 190 kts 326°
2026-05-06 12:59 51.25774 14.20319 3983 ft 165 kts 285°
2026-05-06 12:59 51.25947 14.18573 3994 ft 158 kts 257°
2026-05-06 12:59 51.25494 14.17008 3998 ft 157 kts 234°
2026-05-06 13:00 51.24878 14.15603 4017 ft 157 kts 237°
2026-05-06 13:00 51.24294 14.14082 4061 ft 155 kts 244°
2026-05-06 13:00 51.23874 14.12501 4020 ft 154 kts 248°
2026-05-06 13:00 51.23516 14.10992 3999 ft 136 kts 248°
2026-05-06 13:01 51.23196 14.09608 4000 ft 134 kts 249°
2026-05-06 13:01 51.22874 14.08233 4001 ft 131 kts 251°
2026-05-06 13:01 51.22656 14.06809 3999 ft 134 kts 257°
2026-05-06 13:01 51.22533 14.05353 3818 ft 132 kts 264°
2026-05-06 13:02 51.22476 14.03891 3524 ft 133 kts 265°
2026-05-06 13:02 51.22421 14.02409 3233 ft 135 kts 265°
2026-05-06 13:02 51.22352 14.00905 2918 ft 138 kts 265°
2026-05-06 13:02 51.22275 13.99378 2619 ft 137 kts 266°
2026-05-06 13:03 51.22193 13.97913 2328 ft 130 kts 266°
2026-05-06 13:03 51.22063 13.96483 1972 ft 130 kts 262°
2026-05-06 13:03 51.21934 13.95050 1911 ft 130 kts 263°
2026-05-06 13:03 51.21801 13.93621 1969 ft 131 kts 262°
2026-05-06 13:04 51.21611 13.92137 1979 ft 137 kts 259°
2026-05-06 13:04 51.21435 13.90679 1991 ft 135 kts 261°
2026-05-06 13:04 51.21257 13.89195 2004 ft 134 kts 259°
2026-05-06 13:04 51.21075 13.87766 2000 ft 133 kts 252°
2026-05-06 13:05 51.20528 13.86598 2003 ft 137 kts 221°
2026-05-06 13:05 51.19768 13.85614 1721 ft 134 kts 226°
2026-05-06 13:05 51.19074 13.84658 1696 ft 135 kts 224°
2026-05-06 13:05 51.18347 13.83632 1566 ft 140 kts 226°
2026-05-06 13:06 51.17645 13.82546 1375 ft 144 kts 223°
2026-05-06 13:06 51.16871 13.81569 1347 ft 142 kts 222°
2026-05-06 13:06 51.16118 13.80536 1075 ft 138 kts 229°
2026-05-06 13:06 51.15391 13.79495 1019 ft 144 kts 224°
2026-05-06 13:07 51.14600 13.78406 818 ft 154 kts 224°
2026-05-06 13:07 51.13810 13.77339 733 ft 140 kts 221°
2026-05-06 13:07 51.13149 13.76431 746 ft 108 kts 228°
2026-05-06 13:07 51.12757 13.75863 757 ft 26 kts 217°
2026-05-06 13:08 51.12657 13.75917 755 ft 9 kts 131°
2026-05-06 13:08 51.12616 13.75985 754 ft 3 kts 133°
2026-05-06 13:08 51.12614 13.75990 754 ft 0 kts 133°
2026-05-06 13:13 51.12579 13.76050 755 ft 16 kts 131°
2026-05-06 13:13 51.12579 13.76107 756 ft 7 kts 17°
2026-05-06 13:13 51.12645 13.76187 754 ft 17 kts 40°
2026-05-06 13:13 51.12717 13.76290 749 ft 8 kts 42°
2026-05-06 13:14 51.12758 13.76292 748 ft 4 kts 266°
2026-05-06 13:14 51.12736 13.76287 748 ft 4 kts 184°
2026-05-06 13:14 51.12719 13.76284 750 ft 3 kts 189°
2026-05-06 13:14 51.12687 13.76298 750 ft 8 kts 143°
2026-05-06 13:15 51.12653 13.76357 751 ft 3 kts 129°
2026-05-06 13:15 51.12641 13.76380 751 ft 0 kts 130°
2026-05-06 13:15 51.12640 13.76380 751 ft 0 kts 130°
2026-05-06 13:15 51.12635 13.76391 751 ft 1 kts 130°
2026-05-06 13:16 51.12632 13.76395 751 ft 2 kts 130°